Location: Cabrera Baja
(40.4089°N, 4.3354°W)
Time: 03:31:04
(UTC+00:00)

SeaSat 1 - Pass Details

Date: 14 July 2020
Orbit: 744 x 747 km, 108.0° (Epoch: 03 August)

Event Time Altitude Azimuth Distance (km) Brightness Sun altitude
Rises 02:16:23 0° 24° (NNE) 3,199 7.2 -22.6°
Reaches altitude 10° 02:18:39 10° 24° (NNE) 2,271 6.1 -22.4°
Maximum altitude 02:23:36 81° 297° (WNW) 761 2.4 -21.9°
Enters shadow 02:24:48 52° 219° (SW) 920 2.5 -21.8°
